SL-12 R/B(2), 29673

Orbit data source: Space-Track

SL-12 R/B(2), 29673 is space debris in MEO originally from a launch on Mon, 25 Dec 2006 UTC launched from the Tyuratam Missile And Space Complex (TTMTR). Debris objects in space refer to the collection of defunct objects orbiting the Earth. Examples of debris include non-operational satellites, rocket bodies, and fragments generated from explosions, collisions, or faulty payload assembly.

Loading next visibility...
Identifier
29673, 2006-062D
Orbit
MEO
Country
Flag of CISCIS
Related business
Manufacturer
RKKE
Mission
Spacecraft
Bus & Motor
BLOK DM2, 11D58M
Mass
2,440 kg wet, 2,440 kg dry
Launch date (UTC)
2006-12-25 (19 years ago)
Launch vehicle
Unknown
Launch site
Tyuratam Missile And Space Complex (TTMTR)
Object type
Payload
Rocket body
Debris
Shape & HBR
Cyl, 3.1 m
Radar Cross Section
23.684 m², Large (>1 m²)

Expand to show TLE details & history
Last TLE update: 16 hours ago

TLE from 16 hours ago
0 SL-12 R/B(2)
1 29673U 06062D   26033.99639935  .00000035  00000-0  00000-0 0  9996
2 29673  64.7047 198.0929 0027576 191.8761 334.0288  2.13404220149128
Epoch: 2026-02-02T23:54Z
TLE epoch observation values (Epoch: 2026-02-02T23:54:48.903Z)
Latitude
12.78326°
Longitude
-119.94346°
Altitude
19,042.528 km
Speed
3.965 km/s
True Right ascension
00h 47m 46s
True Declination
12° 45' 45"
Sunlit
Object was in daylight at epoch
Visualization orbit readout
Latitude
Unknown
Longitude
Unknown
Altitude
Unknown
Speed
Unknown
Apparent Right ascension
Unknown
Apparent Declination
Unknown
Sunlit
N/A
Visualization observer readout
Local Sidereal Time
17:29:26
Azimuth
Unknown
Elevation
Unknown
Doppler factor
Unknown
Orbital elements
Apogee altitude
19,175.697 km
Perigee altitude
19,035.15 km
Semi-major axis
25,483.561 km
Eccentricity
0.00276
Inclination
64.7047°
RAAN
198.0929°
Arg. of periapsis
191.8761°
True anomaly
333.88999°
Mean anomaly
334.0288°
Eccentric anomaly
333.95944°
Mean motion
0.53352 °/min
Orbital period
674.76 mins
BSTAR
0
Loading maneuver chart data...
Computing Atmospheric mass density...
Loading historical data...
Loading historical data...
Loading historical data...
Loading historical data...
Loading historical data...
Loading historical data...
Loading historical data...

Documentation

Showing up to 5 results
|